Terug naar catalogus

COSMOS 1275 DEB

LostPO
NORAD 42208·DEBRIS·🇷🇺 Russia

Gelanceerd Jun 4, 1981 vanaf Plesetsk Cosmodrome

Loading…

Volgende Passages (komende 24 uur)

TLE

VerouderdSource: Space-Track

Epoch: Jul 23, 2017, 19:27 UTC

1 42208U 81053TY  17204.81076190 +.00001095 +00000-0 +62412-3 0  9992
2 42208 082.9598 146.9038 0081720 094.9184 275.8811 14.07232638560125

Volg COSMOS 1275 DEB in realtime met AllMySat

Download on the App Store